Location: Acheville
(50.3840°N, 2.8827°E)
Time: 10:14:53
(UTC+00:00)

Cosmos 1140 Rocket - Pass Details

Date: 24 October 2021
Orbit: 743 x 768 km, 74.1° (Epoch: 30 November)

Event Time Altitude Azimuth Distance (km) Brightness Sun altitude
Rises 18:10:57 0° 339° (NNW) 3,218 7.0 -15.3°
Reaches altitude 10° 18:13:27 10° 346° (NNW) 2,293 6.1 -15.7°
Maximum altitude 18:18:22 42° 57° (ENE) 1,085 3.9 -16.5°
Enters shadow 18:20:37 27° 109° (ESE) 1,426 4.3 -16.9°
